Temp
62 62 62 62 62 62 62 61 61 61 60 59 60 59 59 58 58 59 58 58 59 58 58 58 58 59 61 59 59 60 59 58 57 57 58 58 57 57 58 57 56 57
61 61 62 62 62 61 61 61 61 61 60 60 60 59 59 59 58 60 59 59 58 57 57 58 58 58 58 59 58 58 58 57 58 61 58 58 57 58 57 56 57 56
60 61 61 61 62 61 60 60 61 61 61 60 60 60 60 59 59 57 58 58 58 57 57 57 57 57 57 57 57 57 57 56 56 56 56 56 55 57 56 57 56 57
59 60 61 60 60 60 60 60 60 60 60 60 60 61 61 60 58 58 59 60 58 56 55 57 57 57 57 56 57 56 55 55 55 55 55 55 55 56 54 55 55 56
60 59 60 60 60 60 61 61 60 60 61 60 60 59 60 58 57 57 57 56 56 55 55 56 56 56 56 56 56 55 55 55 55 56 57 55 55 57 56 57 56 56
59 60 61 61 60 61 60 60 60 60 60 59 59 59 58 58 57 57 56 55 55 55 55 55 56 56 56 55 55 55 55 57 55 56 57 56 56 56 60 57 57 56
60 60 60 61 60 61 60 60 60 60 59 59 58 58 58 57 57 56 55 55 55 56 55 55 55 56 55 54 54 54 54 55 54 56 57 55 56 55 55 56 56 55
60 60 61 61 61 60 60 60 60 59 59 58 59 58 58 59 58 57 56 55 55 56 55 55 55 55 54 53 54 54 55 57 55 55 54 53 54 54 54 57 54 55
60 60 61 61 61 60 60 60 60 59 59 59 58 58 58 59 59 57 56 55 55 55 54 54 54 53 53 54 53 53 54 56 55 53 53 54 55 54 56 54 55 55
59 59 59 60 61 61 60 59 60 59 59 60 59 58 59 57 57 57 57 55 56 55 55 55 54 54 54 54 54 53 54 55 53 53 53 53 55 55 55 55 55 54
59 59 59 59 59 59 60 60 60 60 58 60 58 58 58 58 58 58 56 56 57 56 56 55 54 54 54 54 54 54 55 54 53 53 53 54 55 55 57 54 54 55
58 58 59 58 58 58 59 60 61 60 59 59 60 59 57 59 60 56 59 58 57 56 55 55 55 55 55 54 54 54 54 54 54 54 54 54 54 54 54 53 54 53
58 57 57 57 58 59 60 60 60 61 59 59 59 57 58 57 58 57 57 59 59 57 57 57 56 56 55 54 55 54 55 56 54 53 54 54 54 55 54 54 53 53
57 57 56 57 57 58 59 59 59 59 59 59 58 56 57 58 58 57 57 58 59 57 58 57 56 55 55 55 55 54 54 54 54 54 54 54 54 54 54 54 53 54
57 57 57 57 57 57 57 58 58 59 59 59 59 58 59 58 57 55 57 56 56 57 58 56 58 58 58 56 55 55 54 54 53 54 55 55 54 54 54 54 53 54
56 56 57 57 57 57 57 57 58 57 58 57 57 57 57 58 57 56 56 55 55 55 55 56 57 58 60 56 56 59 54 56 55 53 54 55 56 55 54 54 55 54
56 56 57 57 56 57 56 57 58 58 57 56 56 56 56 55 56 57 54 53 54 54 56 58 57 57 52 49 50 53 58 56 56 54 53 53 53 55 55 55 54 53
55 56 56 55 55 56 57 56 57 56 56 56 55 56 55 54 55 53 53 52 52 52 53 56 55 51 42 46 48 48 54 58 57 57 55 54 55 54 56 54 54 54
56 57 56 55 55 55 55 55 55 55 55 56 56 55 53 55 53 53 52 51 52 52 53 52 52 44 42 44 47 47 47 53 57 58 58 56 55 56 55 54 52 52
55 54 54 53 54 53 53 53 54 54 53 53 53 53 54 54 53 53 52 52 52 52 51 51 50 47 40 42 43 42 42 48 56 56 56 56 56 56 56 54 54 54
51 50 51 51 52 52 52 52 51 52 53 52 53 53 53 53 53 53 52 52 52 51 50 51 53 48 41 40 40 41 41 44 51 53 55 54 55 55 56 56 55 56
50 49 49 49 50 50 50 50 50 50 51 52 52 52 52 52 51 51 51 52 52 51 51 52 53 47 43 41 40 40 40 48 50 52 52 53 53 54 55 54 54 56
50 49 49 49 49 49 49 48 49 49 49 50 51 50 49 50 52 51 52 53 51 50 51 52 53 50 44 42 42 40 42 49 50 52 52 52 53 54 53 54 55 55
49 49 49 49 49 48 48 48 48 48 49 50 48 48 49 49 49 50 51 51 51 52 53 53 54 52 47 45 43 41 45 50 50 50 49 51 51 52 52 54 56 55
51 51 50 49 49 49 49 49 48 48 48 49 49 49 49 49 49 49 49 49 50 52 54 53 53 53 48 45 45 43 45 50 51 50 49 49 50 51 51 52 53 53
50 50 50 50 50 50 50 50 50 50 50 50 50 50 50 50 50 50 49 49 49 49 51 53 52 54 53 47 45 45 44 49 50 50 50 50 50 51 52 51 51 52
MSLP
1016.48 1016.64 1016.68 1016.72 1016.84 1017.00 1017.24 1017.44 1017.60 1017.72 1017.88 1017.84 1017.84 1017.96 1017.88 1018.00 1018.12 1018.12 1018.20 1018.20 1018.16 1018.24 1018.32 1018.40 1018.48 1018.56 1018.64 1018.76 1018.84 1018.92 1019.08 1019.24 1019.32 1019.40 1019.48 1019.48 1019.60 1019.64 1019.72 1019.92 1020.20 1020.44
1016.52 1016.72 1016.72 1016.76 1016.92 1017.04 1017.16 1017.24 1017.52 1017.68 1017.88 1017.84 1017.84 1017.96 1018.04 1018.08 1018.16 1018.16 1018.24 1018.24 1018.28 1018.36 1018.40 1018.52 1018.56 1018.60 1018.72 1018.84 1018.96 1019.08 1019.20 1019.28 1019.36 1019.32 1019.36 1019.48 1019.60 1019.64 1019.72 1019.88 1020.04 1020.28
1016.44 1016.72 1016.76 1016.80 1016.92 1017.08 1017.20 1017.36 1017.48 1017.68 1017.80 1017.88 1017.92 1017.96 1018.12 1018.16 1018.20 1018.20 1018.20 1018.24 1018.40 1018.48 1018.52 1018.64 1018.68 1018.72 1018.80 1018.92 1019.00 1019.16 1019.32 1019.40 1019.44 1019.44 1019.40 1019.48 1019.56 1019.64 1019.68 1019.88 1020.04 1020.16
1016.52 1016.76 1016.76 1016.84 1016.96 1017.20 1017.32 1017.48 1017.72 1017.84 1017.96 1018.04 1018.08 1018.12 1018.16 1018.28 1018.28 1018.32 1018.32 1018.28 1018.40 1018.56 1018.72 1018.72 1018.76 1018.80 1018.84 1018.92 1019.04 1019.20 1019.32 1019.44 1019.52 1019.48 1019.48 1019.56 1019.64 1019.60 1019.72 1019.88 1020.04 1020.20
1016.48 1016.76 1016.80 1016.88 1017.04 1017.24 1017.36 1017.56 1017.84 1018.00 1018.08 1018.16 1018.28 1018.32 1018.32 1018.40 1018.44 1018.48 1018.44 1018.44 1018.48 1018.64 1018.76 1018.84 1018.88 1018.88 1018.92 1019.04 1019.08 1019.24 1019.32 1019.40 1019.52 1019.44 1019.48 1019.56 1019.68 1019.64 1019.76 1019.80 1019.96 1020.12
1016.44 1016.64 1016.68 1016.80 1017.00 1017.12 1017.40 1017.64 1017.88 1018.04 1018.24 1018.36 1018.44 1018.48 1018.48 1018.52 1018.56 1018.56 1018.56 1018.60 1018.60 1018.72 1018.88 1018.92 1018.92 1018.96 1019.00 1019.12 1019.20 1019.24 1019.32 1019.36 1019.44 1019.44 1019.52 1019.60 1019.68 1019.72 1019.76 1019.76 1019.84 1020.04
1016.44 1016.60 1016.72 1016.84 1017.00 1017.08 1017.40 1017.68 1017.92 1018.08 1018.28 1018.40 1018.56 1018.64 1018.68 1018.72 1018.72 1018.72 1018.72 1018.68 1018.72 1018.80 1018.92 1018.96 1018.96 1019.08 1019.12 1019.16 1019.24 1019.36 1019.44 1019.48 1019.56 1019.56 1019.68 1019.80 1019.76 1019.80 1019.76 1019.76 1019.92 1020.08
1016.36 1016.52 1016.72 1016.92 1017.04 1017.28 1017.48 1017.76 1017.92 1018.12 1018.28 1018.44 1018.52 1018.68 1018.72 1018.80 1018.88 1018.88 1018.88 1018.84 1018.84 1018.92 1018.96 1019.00 1019.04 1019.08 1019.24 1019.20 1019.32 1019.48 1019.60 1019.64 1019.68 1019.80 1019.88 1020.00 1019.92 1019.92 1019.88 1019.88 1019.96 1020.08
1017.44 1017.24 1016.96 1016.96 1017.16 1017.40 1017.64 1017.80 1018.00 1018.16 1018.24 1018.36 1018.52 1018.64 1018.76 1018.84 1018.92 1019.00 1019.04 1019.00 1018.96 1018.92 1018.96 1019.04 1019.12 1019.16 1019.24 1019.28 1019.40 1019.52 1019.64 1019.76 1019.88 1019.92 1020.00 1020.04 1020.00 1020.00 1020.00 1020.04 1020.00 1020.08
1017.96 1018.32 1018.44 1018.00 1017.44 1017.56 1017.80 1018.04 1018.12 1018.20 1018.28 1018.28 1018.40 1018.60 1018.76 1018.92 1018.96 1019.04 1019.16 1019.16 1019.12 1019.08 1019.04 1019.04 1019.16 1019.16 1019.24 1019.40 1019.48 1019.64 1019.72 1019.84 1019.96 1020.04 1020.08 1020.08 1020.08 1020.16 1020.20 1020.16 1020.12 1020.20
1017.52 1017.76 1017.80 1018.32 1018.84 1018.44 1018.00 1018.12 1018.20 1018.28 1018.32 1018.32 1018.52 1018.68 1018.76 1018.92 1019.08 1019.16 1019.20 1019.28 1019.28 1019.24 1019.16 1019.20 1019.20 1019.28 1019.40 1019.56 1019.56 1019.60 1019.64 1019.84 1019.96 1020.08 1020.12 1020.20 1020.20 1020.24 1020.28 1020.28 1020.28 1020.28
1017.68 1017.88 1018.36 1018.52 1018.80 1019.12 1018.68 1018.36 1018.24 1018.28 1018.36 1018.40 1018.52 1018.76 1018.84 1018.88 1018.92 1019.16 1019.16 1019.20 1019.24 1019.28 1019.24 1019.28 1019.36 1019.40 1019.56 1019.60 1019.60 1019.68 1019.72 1019.88 1020.00 1020.16 1020.20 1020.28 1020.32 1020.32 1020.36 1020.36 1020.36 1020.44
1017.76 1018.12 1018.60 1018.32 1018.76 1018.48 1018.12 1018.56 1018.68 1018.48 1018.40 1018.52 1018.56 1018.72 1018.76 1018.88 1018.88 1019.00 1019.08 1019.04 1019.16 1019.32 1019.32 1019.36 1019.44 1019.52 1019.60 1019.64 1019.68 1019.80 1019.92 1019.92 1020.12 1020.20 1020.28 1020.32 1020.28 1020.28 1020.36 1020.40 1020.40 1020.44
1017.88 1018.00 1018.60 1018.84 1018.88 1018.60 1018.40 1018.36 1018.48 1018.76 1018.84 1018.56 1018.64 1018.72 1018.64 1018.76 1018.84 1018.96 1018.96 1019.00 1019.04 1019.20 1019.24 1019.40 1019.52 1019.56 1019.64 1019.72 1019.76 1019.88 1019.88 1019.88 1019.96 1020.08 1020.28 1020.36 1020.32 1020.32 1020.36 1020.44 1020.44 1020.44
1018.04 1018.20 1018.36 1018.36 1018.40 1018.64 1018.68 1018.76 1018.76 1018.76 1018.96 1018.96 1018.72 1018.64 1018.60 1018.68 1018.76 1018.80 1018.84 1019.04 1019.12 1019.16 1019.24 1019.48 1019.56 1019.56 1019.64 1019.80 1019.84 1019.88 1019.84 1019.84 1020.00 1020.04 1020.20 1020.36 1020.48 1020.44 1020.48 1020.48 1020.52 1020.52
1018.40 1018.44 1018.52 1018.64 1018.92 1019.32 1019.44 1019.32 1019.16 1019.56 1019.56 1019.20 1018.92 1018.80 1018.80 1018.76 1018.72 1018.76 1018.76 1018.92 1019.12 1019.20 1019.32 1019.48 1019.56 1019.60 1019.52 1019.56 1019.68 1019.80 1019.92 1019.92 1020.08 1020.16 1020.24 1020.32 1020.44 1020.52 1020.56 1020.64 1020.60 1020.60
1018.80 1018.76 1018.76 1018.92 1018.96 1019.36 1019.44 1019.24 1019.16 1019.32 1019.76 1019.48 1019.16 1018.88 1018.80 1018.80 1018.84 1018.84 1019.00 1019.08 1019.08 1019.08 1019.20 1019.36 1019.52 1019.60 1019.56 1019.56 1019.60 1019.64 1019.80 1019.92 1020.04 1020.20 1020.36 1020.40 1020.44 1020.44 1020.52 1020.64 1020.68 1020.76
1018.84 1019.04 1019.12 1019.28 1019.40 1019.52 1019.52 1019.52 1019.56 1019.60 1019.96 1020.28 1019.56 1019.20 1018.96 1018.88 1018.92 1019.04 1019.08 1019.20 1019.20 1019.20 1019.16 1019.20 1019.36 1019.48 1019.56 1019.60 1019.64 1019.64 1019.64 1019.80 1019.96 1020.08 1020.28 1020.32 1020.40 1020.44 1020.48 1020.60 1020.68 1020.76
1019.08 1019.04 1019.12 1019.16 1019.28 1019.36 1019.56 1019.88 1020.24 1020.28 1020.36 1020.28 1019.72 1019.48 1019.48 1019.12 1019.20 1019.20 1019.20 1019.32 1019.32 1019.28 1019.32 1019.40 1019.36 1019.48 1019.48 1019.52 1019.64 1019.76 1019.76 1019.76 1019.84 1019.88 1020.04 1020.16 1020.24 1020.32 1020.36 1020.52 1020.72 1020.76
1019.76 1019.68 1019.72 1019.84 1019.84 1019.88 1019.92 1019.92 1019.92 1020.12 1019.96 1019.64 1019.64 1019.52 1019.72 1019.84 1019.52 1019.44 1019.36 1019.40 1019.40 1019.36 1019.40 1019.52 1019.56 1019.64 1019.64 1019.56 1019.60 1019.68 1019.76 1019.76 1019.72 1019.80 1019.88 1019.96 1020.04 1020.08 1020.20 1020.36 1020.56 1020.60
1020.64 1020.60 1020.56 1020.44 1020.36 1020.32 1020.20 1020.08 1020.08 1020.00 1020.04 1020.16 1019.92 1019.96 1020.08 1019.64 1019.24 1019.40 1019.48 1019.44 1019.44 1019.44 1019.40 1019.36 1019.40 1019.52 1019.72 1019.80 1019.72 1019.60 1019.60 1019.68 1019.68 1019.68 1019.72 1019.76 1019.84 1019.92 1019.92 1020.04 1020.24 1020.32
1021.00 1021.08 1021.08 1021.08 1020.96 1020.84 1020.72 1020.72 1020.60 1020.44 1020.28 1020.08 1020.00 1020.00 1019.88 1019.76 1019.72 1019.68 1019.60 1019.48 1019.48 1019.48 1019.44 1019.36 1019.24 1019.28 1019.40 1019.64 1019.88 1019.92 1019.92 1019.80 1019.72 1019.68 1019.68 1019.68 1019.68 1019.76 1019.88 1020.12 1020.36 1020.24
1020.76 1020.76 1020.84 1020.88 1020.92 1020.92 1021.04 1021.08 1021.04 1020.84 1020.64 1020.48 1020.24 1020.16 1019.92 1019.72 1019.60 1019.48 1019.48 1019.52 1019.52 1019.52 1019.40 1019.28 1019.12 1019.00 1019.12 1019.32 1019.52 1019.96 1020.16 1020.00 1019.88 1019.72 1019.68 1019.64 1019.60 1019.72 1019.88 1019.96 1019.72 1020.04
1020.88 1020.84 1020.80 1020.80 1020.72 1020.80 1020.88 1020.96 1020.96 1020.88 1020.80 1020.76 1020.64 1020.44 1020.24 1020.16 1019.96 1019.72 1019.56 1019.48 1019.44 1019.40 1019.44 1019.32 1019.08 1018.80 1018.80 1018.88 1019.16 1019.76 1019.76 1019.72 1019.76 1019.76 1019.72 1019.68 1019.68 1019.64 1019.80 1019.84 1019.56 1019.64
1021.56 1021.48 1021.44 1021.36 1021.28 1021.24 1021.16 1021.04 1021.04 1021.04 1021.04 1020.88 1020.80 1020.68 1020.60 1020.44 1020.24 1020.04 1019.80 1019.64 1019.52 1019.40 1019.32 1019.40 1019.24 1018.96 1018.88 1018.92 1018.84 1019.36 1019.76 1019.68 1019.64 1019.68 1019.72 1019.80 1019.72 1019.60 1019.72 1019.84 1019.72 1019.60
1022.16 1022.16 1022.12 1022.08 1022.04 1021.92 1021.76 1021.60 1021.40 1021.12 1020.96 1020.88 1020.76 1020.76 1020.68 1020.48 1020.28 1020.12 1019.96 1019.64 1019.52 1019.44 1019.28 1019.16 1019.12 1018.88 1018.68 1018.68 1018.72 1018.80 1019.36 1019.56 1019.60 1019.56 1019.48 1019.40 1019.52 1019.52 1019.52 1019.68 1019.64 1019.52
Wind_Speed
0 1 4 5 6 6 6 5 5 5 4 5 5 3 5 3 3 5 4 3 4 5 4 4 4 4 4 4 3 3 2 3 2 2 3 3 3 3 4 3 3 3
1 3 3 4 5 4 4 5 5 6 5 4 5 4 4 4 4 5 4 4 4 4 3 4 4 5 4 4 4 4 3 3 3 1 3 2 3 3 3 4 4 3
1 4 5 6 6 5 4 4 6 5 6 5 4 5 4 3 5 4 4 5 4 4 4 4 4 4 4 4 4 4 3 3 3 2 2 2 2 3 3 5 4 4
2 4 4 5 5 5 5 6 5 6 5 6 4 4 4 3 4 4 4 5 5 4 3 4 4 4 4 4 4 4 4 3 2 2 3 3 3 3 3 3 3 3
4 4 4 5 5 5 5 7 7 6 5 5 4 4 5 4 4 4 4 4 4 4 4 4 4 4 4 4 5 5 4 4 3 4 5 4 2 5 3 5 5 4
4 4 5 6 6 7 6 7 6 6 6 5 4 3 4 4 4 4 4 4 4 4 4 4 4 4 4 4 4 4 4 4 3 5 5 4 4 3 4 5 6 5
6 5 5 6 6 7 8 7 6 6 5 5 4 4 4 4 4 4 4 4 4 4 4 4 4 4 3 4 4 4 3 4 3 5 5 4 4 4 3 5 5 5
5 5 6 6 7 6 8 7 7 6 6 5 5 4 4 4 4 3 3 3 4 3 3 4 4 3 2 4 4 4 3 2 4 4 4 4 4 4 4 4 4 5
8 3 3 6 7 6 7 7 6 6 5 6 5 5 4 4 4 4 3 3 3 3 3 3 3 3 3 3 4 4 4 2 3 4 4 4 5 5 4 4 5 5
10 9 12 8 3 6 6 5 6 5 4 6 6 5 5 3 4 4 3 3 3 2 2 3 2 3 3 3 4 4 4 4 2 3 3 4 4 4 4 4 5 5
7 6 6 3 11 3 5 5 5 5 4 5 5 5 4 4 3 2 4 3 4 4 3 2 3 3 3 3 3 4 4 4 3 3 4 4 4 4 4 4 4 5
5 3 6 9 5 1 3 0 4 5 4 4 5 5 4 5 6 4 5 5 4 4 4 3 2 3 4 4 4 4 4 4 4 4 4 4 4 4 4 4 4 4
5 8 3 4 3 1 5 4 3 1 4 4 4 4 5 5 5 5 5 6 5 4 4 4 4 4 3 2 3 4 4 5 4 4 4 4 4 4 4 4 4 3
6 7 4 3 2 3 4 1 1 5 3 2 3 4 4 5 5 5 6 5 6 5 5 5 4 4 3 3 2 4 4 4 4 4 5 4 4 4 4 4 4 4
5 5 4 4 4 4 5 4 3 3 5 4 2 3 3 4 4 4 5 4 4 5 5 4 5 5 4 4 4 3 3 4 4 4 5 5 4 4 4 4 4 4
3 4 4 6 8 8 5 4 3 5 4 2 1 0 0 1 3 2 3 4 4 4 4 4 5 4 7 11 9 6 4 4 3 3 4 5 5 5 5 4 4 4
5 6 5 4 6 2 1 3 1 1 5 4 3 2 2 1 1 2 2 3 4 4 6 6 4 4 8 12 13 12 7 5 5 4 3 4 4 5 6 5 4 4
4 3 3 2 2 1 1 2 3 2 2 6 4 2 3 3 4 2 2 3 3 2 4 6 5 6 6 10 12 12 11 8 6 6 5 5 5 5 5 4 4 4
4 4 4 2 2 1 1 1 2 3 6 5 3 3 3 3 2 2 2 1 2 2 2 2 3 6 7 8 9 8 10 8 7 7 7 7 6 7 6 6 5 5
7 8 7 5 3 3 2 2 3 2 3 2 2 1 1 3 1 2 2 1 1 2 3 2 3 5 6 8 9 8 7 7 5 6 6 6 7 8 7 7 7 8
6 6 7 7 6 6 6 7 6 7 4 3 3 4 5 5 3 2 3 3 4 4 4 4 5 6 7 7 7 9 8 5 3 3 5 6 7 7 8 8 9 9
7 7 6 5 6 6 7 7 7 6 6 7 5 3 0 0 2 1 3 3 4 4 4 6 6 9 9 8 8 7 6 3 3 4 5 5 6 7 6 2 2 6
8 8 8 8 7 7 8 8 8 8 7 7 6 6 5 7 6 4 4 4 4 4 5 6 6 9 10 10 10 9 6 5 4 4 5 5 7 6 5 4 6 5
10 10 11 10 10 10 9 7 6 5 7 6 7 7 7 7 5 6 5 4 4 5 5 6 7 10 12 12 10 11 10 6 6 6 5 5 5 5 4 7 11 13
8 9 9 9 10 10 9 9 8 7 5 6 6 6 6 6 5 5 5 4 3 5 7 7 8 10 12 12 13 10 9 6 6 5 6 6 6 7 6 7 8 10
7 8 8 9 9 9 9 9 8 9 10 9 8 6 7 7 6 6 6 7 4 3 4 5 7 8 10 13 13 13 12 8 5 5 7 8 8 8 7 7 8 8
Wind_Direction
67 177 154 143 145 145 147 137 144 142 141 139 136 151 128 131 108 109 121 111 95 79 77 95 108 107 104 100 102 99 108 120 114 127 144 159 127 131 135 130 128 144
163 188 163 131 129 132 142 139 141 139 146 145 139 131 121 119 120 122 124 98 74 69 84 100 108 109 107 104 106 108 104 105 99 88 133 146 145 143 149 142 135 124
159 178 159 148 153 155 136 124 128 136 140 143 131 127 131 126 122 114 116 110 94 81 81 103 102 105 111 112 108 104 108 96 89 57 94 126 141 155 170 146 142 155
185 193 153 140 138 131 125 111 108 120 123 124 136 137 128 129 122 124 119 113 108 96 92 101 117 117 114 112 103 95 103 91 95 104 88 67 89 123 117 107 120 121
165 172 144 128 119 123 121 115 121 125 126 129 119 119 117 121 119 122 118 113 115 103 98 114 122 123 115 110 113 106 100 106 108 108 97 85 73 105 102 106 111 105
137 158 143 131 134 127 118 121 127 124 125 121 136 123 124 130 132 137 132 121 116 111 107 120 126 133 127 118 108 117 126 110 113 101 99 107 93 86 113 107 97 84
148 146 133 131 126 121 119 123 123 126 129 136 118 126 132 132 140 148 144 134 123 130 134 137 130 136 125 118 107 113 114 121 113 99 106 110 106 76 72 92 95 94
149 143 131 128 121 121 124 131 135 139 140 131 135 155 143 151 159 169 147 135 144 142 127 131 142 143 142 117 117 118 122 112 112 102 107 113 109 102 77 89 107 101
9 26 109 126 122 129 133 139 143 141 145 142 148 160 165 161 173 170 170 163 155 166 138 151 151 163 170 129 133 140 144 150 114 121 132 134 126 134 134 128 111 117
50 31 2 350 96 133 131 141 145 148 152 151 159 159 171 194 179 168 166 170 170 183 188 158 152 164 167 146 153 152 156 163 153 148 151 156 148 146 146 138 132 120
94 111 129 55 350 351 123 138 148 148 157 166 157 168 180 172 200 172 160 175 180 194 203 172 180 172 151 153 164 165 168 161 171 165 164 167 167 160 160 141 137 138
116 112 69 60 72 334 2 66 155 154 163 180 170 172 178 184 181 182 176 190 191 196 190 191 188 176 163 163 163 168 174 166 166 163 169 171 173 163 157 147 137 142
129 86 57 107 149 191 101 21 321 158 155 181 191 165 176 183 187 175 193 180 191 185 185 184 186 189 161 165 153 163 169 160 151 154 169 176 177 173 172 154 143 142
95 110 122 69 60 61 58 55 12 343 306 211 151 166 181 183 182 185 186 185 180 187 190 178 174 184 169 177 184 176 172 161 154 153 169 189 189 194 181 173 172 169
92 105 122 124 99 53 55 46 14 323 304 291 199 186 179 182 182 175 155 179 185 188 183 179 178 186 185 175 196 207 196 182 172 169 168 181 197 206 206 194 193 194
61 63 58 53 53 39 23 33 33 14 324 350 347 72 9 275 176 152 146 152 160 182 192 185 194 197 196 187 183 186 203 212 188 187 178 180 187 202 216 218 208 208
48 48 49 59 83 111 224 141 157 105 310 331 350 36 66 44 93 123 94 125 157 164 178 194 198 207 218 199 193 188 185 197 199 203 193 186 193 190 202 210 219 218
48 39 68 34 72 120 317 1 54 36 341 315 334 2 70 72 69 69 82 114 130 154 175 186 186 181 193 208 208 204 193 190 198 201 195 198 198 205 206 199 198 191
39 35 25 7 359 27 67 56 107 195 212 240 301 336 355 78 100 70 78 75 119 144 188 195 180 180 170 182 197 212 219 204 199 200 198 203 198 202 205 197 187 194
43 41 37 36 46 53 73 117 129 202 250 294 359 8 32 339 346 131 150 154 198 209 234 254 249 227 201 180 174 179 194 201 208 202 202 198 202 199 199 195 189 193
53 50 44 31 25 25 30 35 29 24 45 110 186 262 287 266 233 220 212 201 203 218 234 251 247 226 213 217 207 191 187 183 191 182 187 199 207 207 200 194 196 201
46 50 49 45 37 29 33 29 20 20 19 5 24 6 346 170 317 280 246 218 224 218 220 251 258 241 229 222 207 222 208 207 179 173 183 204 209 207 209 192 244 222
32 35 34 32 33 37 32 23 17 8 3 5 7 3 7 2 349 322 304 292 267 236 226 249 263 260 240 228 217 190 189 217 204 193 189 204 218 217 193 173 213 212
25 25 21 16 18 18 15 12 16 13 12 3 9 354 352 345 329 330 317 295 271 267 251 255 264 264 259 253 230 191 197 204 207 200 209 214 226 231 200 204 218 215
28 28 23 18 13 6 5 6 6 3 356 5 4 357 348 334 335 325 316 294 259 255 256 251 262 272 272 261 258 210 195 217 203 192 205 215 216 227 222 213 227 227
35 31 26 21 14 7 5 3 356 1 1 358 356 358 347 342 339 337 326 314 294 257 252 232 242 260 260 252 243 241 203 200 197 194 212 221 212 213 217 228 233 233